LKW-1 (43034 NORAD) Tracking and Keplerian Element Data

This shows tracking and keplerian element data for the satellite.

Feedback or suggestion? Click here.




ElementValue
Catalog43034
NameLKW-1
Epoch Orbit21101
Epoch Day262.21321475
Epoch Year2021
RAAN335.6085
Inclination97.333
Eccentricity0.0007722
Argument of Perigee76.3423
Mean Anonmoly7.7566
Mean Motion15.23387704
Decay Rate1.224E-05
L11 43034U 17077A 21262.21321475 .00001224 00000-0 54370-4 0 9996
L22 43034 97.3330 335.6085 0007722 76.3423 7.7566 15.23387704211010

Live tracking and technical data element details for LKW-1 (NORAD 43034). LKW-1 can be tracked NOW for your location showing map with azimuth and elevation plus other details from your city location.

Track the satellite on the map from your city or location and see movement details for azimuth, elevation, latitude, longitude, range, height, and movement on the map or in text.







IsCatalogInMostPopularTable: catalog: 43034, numindb: 526
Update: records affected: 1



GetName: 43034 LKW-1

Hit Count: updated at: Sat, 25 Sep 2021 23:52:26 GMT